Weather Roundup
Issued by NWS Springfield, MO

Home | Current Version | Previous Version | Text Only | Print | Product List | Glossary On
Versions: 1 2 3 4 5 6 7 8 9 10 11 12 13 14 15 16 17 18 19 20 21 22 23 24 25 26 27 28 29 30 31 32 33 34 35 36 37 38 39 40 41 42 43 44 45 46 47 48 49 50
000
NZUS99 KSGF 201857
HRRSGF

HOURLY WEATHER
NATIONAL WEATHER SERVICE SPRINGFIELD MO
200 PM CDT WED SEP 20 2017

......SGF CWA......

CITY           SKY/WX    TMP DP  RH WIND       PRES   REMARKS
SPRINGFIELD    SUNNY     92  70  48 SW15G24   29.89F HX  97
JOPLIN         SUNNY     90  75  61 S20G28    29.84F HX 100
WEST PLAINS    MOSUNNY   88  69  53 S10       29.95F HX  92
ROLLA          SUNNY     92  70  48 S9        29.92F HX  97
BRANSON        PTSUNNY   91  66  43 SW9G16    29.93F HX  94

......SURROUNDING SGF CWA......

CITY           SKY/WX    TMP DP  RH WIND       PRES   REMARKS
CHANUTE        MOSUNNY   89  73  59 S13G23    29.82F HX  97
COFFEYVILLE    MOSUNNY   91  74  57 S16G24    29.80F HX 100
EMPORIA        PTSUNNY   85  68  56 SW14      29.81R
HARRISON AR    MOSUNNY   91  67  44 SW10G17   29.93F HX  94

......KANSAS AND MISSOURI......

CITY           SKY/WX    TMP DP  RH WIND       PRES   REMARKS
KANSAS CTY INT PTSUNNY   84  73  69 S14       29.81S HX  90
SEDALIA        SUNNY     91  76  61 S14       29.85F HX 103
ST JOSEPH      PTSUNNY   88  71  57 S12       29.79S HX  94
ST LOUIS       PTSUNNY   94  72  48 S8        29.90F HX 102
WICHITA        MOSUNNY   88  66  48 SW7       29.80F HX  90
TOPEKA         PTSUNNY   88  71  57 S10       29.79S HX  94
OLATHE         CLOUDY    84  73  69 SW10      29.82S HX  90

......TENNESSEE......

CITY           SKY/WX    TMP DP  RH WIND       PRES   REMARKS
MEMPHIS        NOT AVBL
NASHVILLE      PTSUNNY   88  67  49 S5        30.02F HX  91

......ARKANSAS.......

CITY           SKY/WX    TMP DP  RH WIND       PRES   REMARKS
FAYETTEVILLE   SUNNY     89  74  60 S12G20    29.91F HX  98
FT SMITH       SUNNY     94  70  45 S7        29.86F HX 100
LITTLE ROCK    MOSUNNY   90  73  57 SW15      29.93F HX  98

......OKLAHOMA.......

CITY           SKY/WX    TMP DP  RH WIND       PRES   REMARKS
TULSA          MOSUNNY   93  71  48 S15G26    29.79F HX 100
MCALESTER      MOSUNNY   92  74  55 S13G20    29.86F HX 101
OKLAHOMA CITY  MOSUNNY   89  70  53 S16G24    29.82F HX  94

......IOWA............

CITY           SKY/WX    TMP DP  RH WIND       PRES   REMARKS
DES MOINES     NOT AVBL
QUAD CITIES    SUNNY     92  70  48 S15G22    29.79F HX  97

......ILLINOIS........

CITY           SKY/WX    TMP DP  RH WIND       PRES   REMARKS
QUINCY         NOT AVBL
CHICAGO        MOSUNNY   91  67  44 S14G21    29.89F HX  94




USA.gov is the U.S. government's official web portal to all federal, state and local government web resources and services.